TimeCDT,TemperatureF,Dew PointF,Humidity,Sea Level PressureIn,VisibilityMPH,Wind Direction,Wind SpeedMPH,Gust SpeedMPH,PrecipitationIn,Events,Conditions,WindDirDegrees,DateUTC
12:15 AM,49.1,27.1,43,29.82,10.0,WSW,12.7,-,N/A,,Clear,240,2014-03-10 05:15:00
12:35 AM,47.5,26.2,44,29.82,10.0,WSW,10.4,-,N/A,,Clear,240,2014-03-10 05:35:00
12:55 AM,47.1,26.1,44,29.81,10.0,WSW,10.4,-,N/A,,Clear,240,2014-03-10 05:55:00
1:15 AM,46.9,25.5,43,29.81,10.0,WSW,11.5,-,N/A,,Clear,240,2014-03-10 06:15:00
1:35 AM,42.8,24.1,48,29.80,10.0,WSW,8.1,-,N/A,,Clear,240,2014-03-10 06:35:00
1:55 AM,41.4,23.7,50,29.80,10.0,SW,8.1,-,N/A,,Clear,230,2014-03-10 06:55:00
2:15 AM,41.7,23.4,48,29.81,10.0,WSW,8.1,-,N/A,,Clear,240,2014-03-10 07:15:00
2:35 AM,40.8,23.0,49,29.81,10.0,West,9.2,-,N/A,,Clear,260,2014-03-10 07:35:00
2:55 AM,41.2,23.0,48,29.81,10.0,West,6.9,-,N/A,,Clear,260,2014-03-10 07:55:00
3:15 AM,41.7,23.5,49,29.81,10.0,West,8.1,-,N/A,,Clear,280,2014-03-10 08:15:00
3:35 AM,46.4,24.8,43,29.80,10.0,West,9.2,-,N/A,,Clear,270,2014-03-10 08:35:00
3:55 AM,46.8,25.5,43,29.80,10.0,WNW,9.2,-,N/A,,Clear,300,2014-03-10 08:55:00
4:15 AM,47.5,26.2,44,29.79,10.0,WNW,8.1,-,N/A,,Clear,290,2014-03-10 09:15:00
4:35 AM,48.2,26.6,43,29.79,10.0,WNW,8.1,-,N/A,,Clear,290,2014-03-10 09:35:00
4:55 AM,48.0,27.3,45,29.79,10.0,WNW,9.2,-,N/A,,Clear,300,2014-03-10 09:55:00
5:15 AM,47.5,27.7,46,29.80,10.0,NW,9.2,-,N/A,,Clear,310,2014-03-10 10:15:00
5:35 AM,47.8,28.4,47,29.80,10.0,NW,9.2,-,N/A,,Clear,310,2014-03-10 10:35:00
5:55 AM,47.5,28.4,48,29.81,10.0,NW,8.1,-,N/A,,Clear,310,2014-03-10 10:55:00
6:15 AM,46.6,28.4,49,29.81,10.0,NW,5.8,-,N/A,,Clear,310,2014-03-10 11:15:00
6:35 AM,46.4,28.8,50,29.82,10.0,NW,6.9,-,N/A,,Clear,310,2014-03-10 11:35:00
6:55 AM,45.7,28.9,52,29.82,10.0,WNW,6.9,-,N/A,,Clear,290,2014-03-10 11:55:00
7:15 AM,44.6,28.6,53,29.82,10.0,NW,8.1,-,N/A,,Clear,310,2014-03-10 12:15:00
7:35 AM,43.7,28.6,55,29.82,10.0,WNW,8.1,-,N/A,,Clear,290,2014-03-10 12:35:00
7:55 AM,42.1,27.9,57,29.83,10.0,West,5.8,-,N/A,,Clear,270,2014-03-10 12:55:00
8:15 AM,41.5,28.0,59,29.84,10.0,West,6.9,-,N/A,,Clear,280,2014-03-10 13:15:00
8:35 AM,41.9,28.6,59,29.83,10.0,WSW,8.1,-,N/A,,Clear,250,2014-03-10 13:35:00
8:55 AM,46.4,30.2,53,29.84,10.0,West,6.9,-,N/A,,Clear,270,2014-03-10 13:55:00
9:15 AM,48.4,30.6,50,29.84,10.0,West,8.1,-,N/A,,Clear,280,2014-03-10 14:15:00
9:35 AM,50.0,30.9,48,29.84,10.0,WNW,5.8,-,N/A,,Clear,290,2014-03-10 14:35:00
9:55 AM,51.6,30.9,45,29.84,10.0,WNW,5.8,-,N/A,,Clear,290,2014-03-10 14:55:00
10:15 AM,53.1,30.9,43,29.84,10.0,WNW,6.9,-,N/A,,Clear,290,2014-03-10 15:15:00
10:35 AM,56.1,31.3,39,29.84,10.0,WNW,8.1,-,N/A,,Clear,290,2014-03-10 15:35:00
10:55 AM,58.3,31.3,36,29.84,10.0,WNW,6.9,-,N/A,,Clear,300,2014-03-10 15:55:00
11:15 AM,60.1,31.6,34,29.84,10.0,NW,5.8,-,N/A,,Clear,310,2014-03-10 16:15:00
11:35 AM,62.8,32.0,32,29.84,10.0,WNW,5.8,-,N/A,,Clear,300,2014-03-10 16:35:00
11:55 AM,64.8,32.0,29,29.83,10.0,NW,6.9,-,N/A,,Clear,320,2014-03-10 16:55:00
12:15 PM,66.0,32.0,28,29.83,10.0,WNW,4.6,-,N/A,,Clear,300,2014-03-10 17:15:00
12:35 PM,69.8,32.4,25,29.82,10.0,West,5.8,-,N/A,,Clear,270,2014-03-10 17:35:00
12:55 PM,70.9,32.5,24,29.81,10.0,West,3.5,-,N/A,,Clear,270,2014-03-10 17:55:00
1:15 PM,71.6,32.0,23,29.80,10.0,SW,3.5,-,N/A,,Clear,220,2014-03-10 18:15:00
1:35 PM,73.0,32.0,22,29.78,10.0,Calm,Calm,-,N/A,,Clear,0,2014-03-10 18:35:00
1:55 PM,73.8,32.0,22,29.77,10.0,SSW,3.5,-,N/A,,Clear,210,2014-03-10 18:55:00
2:15 PM,73.8,32.0,22,29.76,10.0,Calm,Calm,-,N/A,,Clear,0,2014-03-10 19:15:00
2:35 PM,74.5,32.0,21,29.74,10.0,Calm,Calm,-,N/A,,Clear,0,2014-03-10 19:35:00
2:55 PM,74.5,31.8,21,29.72,10.0,South,4.6,-,N/A,,Clear,180,2014-03-10 19:55:00
3:15 PM,76.3,31.3,19,29.71,10.0,SSW,12.7,-,N/A,,Clear,210,2014-03-10 20:15:00
3:35 PM,76.6,29.8,18,29.70,10.0,SW,12.7,18.4,N/A,,Clear,220,2014-03-10 20:35:00
3:55 PM,76.8,30.2,18,29.69,10.0,SSW,11.5,17.3,N/A,,Clear,210,2014-03-10 20:55:00
4:15 PM,77.9,29.3,17,29.68,10.0,SW,10.4,-,N/A,,Clear,220,2014-03-10 21:15:00
4:35 PM,77.5,28.9,17,29.68,10.0,WSW,10.4,18.4,N/A,,Clear,240,2014-03-10 21:35:00
4:55 PM,76.3,28.6,17,29.68,10.0,SW,12.7,17.3,N/A,,Clear,220,2014-03-10 21:55:00
5:15 PM,76.3,29.1,18,29.67,10.0,SW,13.8,-,N/A,,Clear,220,2014-03-10 22:15:00
5:35 PM,75.9,28.2,17,29.67,10.0,SW,15.0,20.7,N/A,,Clear,220,2014-03-10 22:35:00
5:55 PM,75.2,27.5,17,29.66,10.0,SW,11.5,-,N/A,,Clear,220,2014-03-10 22:55:00
6:15 PM,74.5,28.2,18,29.65,10.0,SW,12.7,17.3,N/A,,Clear,220,2014-03-10 23:15:00
6:35 PM,72.9,26.6,18,29.64,10.0,SSW,10.4,-,N/A,,Clear,210,2014-03-10 23:35:00
6:55 PM,70.5,26.6,19,29.65,10.0,WSW,8.1,-,N/A,,Clear,240,2014-03-10 23:55:00
7:15 PM,64.8,25.5,23,29.65,10.0,WSW,8.1,-,N/A,,Clear,250,2014-03-11 00:15:00
7:35 PM,59.9,24.8,26,29.65,10.0,SW,5.8,-,N/A,,Clear,230,2014-03-11 00:35:00
7:55 PM,63.9,26.6,24,29.65,10.0,SW,6.9,-,N/A,,Clear,220,2014-03-11 00:55:00
8:15 PM,62.1,26.2,26,29.65,10.0,SW,5.8,-,N/A,,Clear,220,2014-03-11 01:15:00
8:35 PM,59.7,26.1,28,29.65,10.0,SW,4.6,-,N/A,,Clear,220,2014-03-11 01:35:00
8:55 PM,60.8,27.1,28,29.64,10.0,SSW,4.6,-,N/A,,Clear,200,2014-03-11 01:55:00
9:15 PM,61.7,27.3,27,29.63,10.0,South,4.6,-,N/A,,Clear,190,2014-03-11 02:15:00
9:35 PM,62.6,27.5,26,29.63,10.0,South,4.6,-,N/A,,Clear,190,2014-03-11 02:35:00
9:55 PM,58.3,26.6,30,29.62,10.0,South,5.8,-,N/A,,Clear,180,2014-03-11 02:55:00
10:15 PM,58.5,27.0,30,29.62,10.0,South,4.6,-,N/A,,Clear,180,2014-03-11 03:15:00
10:35 PM,54.7,25.9,33,29.60,10.0,SSE,8.1,-,N/A,,Clear,160,2014-03-11 03:35:00
10:55 PM,55.8,26.8,33,29.60,10.0,South,6.9,-,N/A,,Clear,180,2014-03-11 03:55:00
11:15 PM,54.5,27.0,35,29.59,10.0,South,9.2,-,N/A,,Clear,180,2014-03-11 04:15:00
11:35 PM,58.8,27.5,30,29.58,10.0,South,8.1,-,N/A,,Clear,190,2014-03-11 04:35:00
11:55 PM,58.3,27.3,31,29.57,10.0,South,10.4,-,N/A,,Clear,190,2014-03-11 04:55:00